Tracking 35035 objects as of 16-Aug-2026
HD Live streaming from Space Station
objects crossing your sky now

ARCSAT-1

Track ARCSAT-1 now!
10-day predictions
ARCSAT-1 is classified as:


NORAD ID: 52161
Int'l Code: 2022-033E
Launch date: April 1, 2022
Source: Norway (NOR)
Launch site: AIR FORCE EASTERN TEST RANGE (AFETR)

Uplink (MHz):
Downlink (MHz): 267.300
Beacon (MHz):
Mode: FM
Call sign:
Status: Inactive

Your satellite tracking list
Your tracking list is empty




NASA's NSSDC Master Catalog

Two Line Element Set (TLE):
1 52161U 22033E   26228.51356104  .00010543  00000-0  15897-3 0  9996
2 52161  97.2740 321.7407 0003873 357.0168   3.1062 15.54954887245077
Source of the keplerian elements: AFSPC